Location: Mitty Observatory
(35.9148°N, 88.8847°W)
Time: 08:50:45
(UTC-05:00)

ISS - Visible Passes

Search period start: 19 October 2019 00:00
Search period end: 29 October 2019 00:00
Orbit: 411 x 421 km, 51.6° (Epoch: 19 October)

Date Brightness Start Highest point End Pass type
(mag) Time Alt. Az. Time Alt. Az. Time Alt. Az.
22 Oct -0.7 05:58:58 10° SSE 06:00:51 14° SE 06:02:44 10° E visible
24 Oct -2.7 05:56:58 10° SSW 06:00:09 45° SE 06:03:23 10° ENE visible
25 Oct -1.7 05:11:26 24° SE 05:11:40 24° SE 05:14:26 10° ENE visible
26 Oct -3.6 05:58:36 36° W 05:59:37 52° NW 06:02:55 10° NE visible
27 Oct -1.9 05:12:34 29° NE 05:12:34 29° NE 05:14:22 10° NE visible
27 Oct -1.7 06:46:10 10° WNW 06:48:06 14° NNW 06:50:02 10° N visible
28 Oct -2.2 05:59:18 21° NNW 05:59:18 21° NNW 06:01:54 10° NNE visible
